Powrót do katalogu

COSMOS 1818 COOLANT

LostLEO
NORAD 36939·DEBRIS·🇷🇺 Russia

Wystrzelony Feb 1, 1987 z Baikonur Cosmodrome

Loading…

Następne Przeloty (najbliższe 24 godziny)

TLE

NieaktualneSource: Space-Track

Epoka: Jul 19, 2022, 12:57 UTC

1 36939U 87011T   22200.53993787  .00000367  00000-0  16443-3 0  9991
2 36939  65.0155 247.4319 0014639 250.8981 109.0520 14.34857207698023

Śledź COSMOS 1818 COOLANT w czasie rzeczywistym z AllMySat

Download on the App Store